Time,TemperatureF,DewpointF,PressureIn,WindDirection,WindDirectionDegrees,WindSpeedMPH,WindSpeedGustMPH,Humidity,HourlyPrecipIn,Conditions,Clouds,dailyrainin,SolarRadiationWatts/m^2,SoftwareType,DateUTC
2013-03-06 00:02:00,54.0,45.0,-100.00,ESE,113,2.0,5.0,71,0.00,,,0.03,0.000000,,2013-03-06 05:02:00,
2013-03-06 00:12:00,54.0,45.0,-100.00,ESE,113,2.0,5.0,71,0.00,,,0.03,0.000000,,2013-03-06 05:12:00,
2013-03-06 00:22:00,54.0,45.0,-100.00,ESE,113,2.0,5.0,71,0.00,,,0.03,0.000000,,2013-03-06 05:22:00,
2013-03-06 00:52:00,57.0,47.0,-100.00,SW,215,5.0,12.0,70,0.04,,,0.07,0.000000,,2013-03-06 05:52:00,
2013-03-06 01:02:00,57.0,47.0,-100.00,SW,215,5.0,12.0,70,0.04,,,0.07,0.000000,,2013-03-06 06:02:00,
2013-03-06 01:11:00,57.0,47.0,-100.00,SW,215,5.0,12.0,70,0.04,,,0.07,0.000000,,2013-03-06 06:11:00,
2013-03-06 01:22:00,57.0,47.0,-100.00,SW,215,5.0,12.0,70,0.04,,,0.07,0.000000,,2013-03-06 06:22:00,
2013-03-06 01:52:00,58.0,48.0,-100.00,SW,222,5.0,13.0,70,0.14,,,0.21,0.000000,,2013-03-06 06:52:00,
2013-03-06 02:02:00,58.0,48.0,-100.00,SW,222,5.0,13.0,70,0.14,,,0.21,0.000000,,2013-03-06 07:02:00,
2013-03-06 02:11:00,58.0,48.0,-100.00,SW,222,5.0,13.0,70,0.14,,,0.21,0.000000,,2013-03-06 07:11:00,
2013-03-06 02:22:00,58.0,48.0,-100.00,SW,222,5.0,13.0,70,0.14,,,0.21,0.000000,,2013-03-06 07:22:00,
2013-03-06 02:52:00,59.0,49.0,-100.00,SW,220,7.0,17.0,69,0.01,,,0.22,0.000000,,2013-03-06 07:52:00,
2013-03-06 03:01:00,59.0,49.0,-100.00,SW,220,7.0,17.0,69,0.01,,,0.22,0.000000,,2013-03-06 08:01:00,
2013-03-06 03:11:00,59.0,49.0,-100.00,SW,220,7.0,17.0,69,0.01,,,0.22,0.000000,,2013-03-06 08:11:00,
2013-03-06 03:21:00,59.0,49.0,-100.00,SW,220,7.0,17.0,69,0.01,,,0.22,0.000000,,2013-03-06 08:21:00,
2013-03-06 03:52:00,58.0,47.0,-100.00,WSW,238,7.0,21.0,68,0.00,,,0.22,0.000000,,2013-03-06 08:52:00,
2013-03-06 04:02:00,58.0,47.0,-100.00,WSW,238,7.0,21.0,68,0.00,,,0.22,0.000000,,2013-03-06 09:02:00,
2013-03-06 04:12:00,58.0,47.0,-100.00,WSW,238,7.0,21.0,68,0.00,,,0.22,0.000000,,2013-03-06 09:12:00,
2013-03-06 04:22:00,58.0,47.0,-100.00,WSW,238,7.0,21.0,68,0.00,,,0.22,0.000000,,2013-03-06 09:22:00,
2013-03-06 04:52:00,55.0,45.0,-100.00,WSW,256,5.0,15.0,69,0.00,,,0.22,0.000000,,2013-03-06 09:52:00,
2013-03-06 05:02:00,55.0,45.0,-100.00,WSW,256,5.0,15.0,69,0.00,,,0.22,0.000000,,2013-03-06 10:02:00,
2013-03-06 05:11:00,55.0,45.0,-100.00,WSW,256,5.0,15.0,69,0.00,,,0.22,0.000000,,2013-03-06 10:11:00,
2013-03-06 05:22:00,55.0,45.0,-100.00,WSW,256,5.0,15.0,69,0.00,,,0.22,0.000000,,2013-03-06 10:22:00,
2013-03-06 05:52:00,53.0,43.0,-100.00,West,261,5.0,12.0,68,0.00,,,0.22,0.000000,,2013-03-06 10:52:00,
2013-03-06 06:02:00,53.0,43.0,-100.00,West,261,5.0,12.0,68,0.00,,,0.22,0.000000,,2013-03-06 11:02:00,
2013-03-06 06:11:00,53.0,43.0,-100.00,West,261,5.0,12.0,68,0.00,,,0.22,0.000000,,2013-03-06 11:11:00,
2013-03-06 06:22:00,53.0,43.0,-100.00,West,261,5.0,12.0,68,0.00,,,0.22,0.000000,,2013-03-06 11:22:00,
2013-03-06 06:52:00,51.0,39.0,-100.00,WSW,252,6.0,16.0,63,0.00,,,0.22,0.000000,,2013-03-06 11:52:00,
2013-03-06 07:02:00,51.0,39.0,-100.00,WSW,252,6.0,16.0,63,0.00,,,0.22,0.000000,,2013-03-06 12:02:00,
2013-03-06 07:12:00,51.0,39.0,-100.00,WSW,252,6.0,16.0,63,0.00,,,0.22,0.000000,,2013-03-06 12:12:00,
2013-03-06 07:22:00,51.0,39.0,-100.00,WSW,252,6.0,16.0,63,0.00,,,0.22,0.000000,,2013-03-06 12:22:00,
2013-03-06 07:53:00,50.0,37.0,-100.00,WSW,258,8.0,18.0,60,0.00,,,0.22,43.000000,,2013-03-06 12:53:00,
2013-03-06 08:02:00,50.0,37.0,-100.00,WSW,258,8.0,18.0,60,0.00,,,0.22,43.000000,,2013-03-06 13:02:00,
2013-03-06 08:12:00,50.0,37.0,-100.00,WSW,258,8.0,18.0,60,0.00,,,0.22,43.000000,,2013-03-06 13:12:00,
2013-03-06 08:22:00,50.0,37.0,-100.00,WSW,258,8.0,18.0,60,0.00,,,0.22,43.000000,,2013-03-06 13:22:00,
2013-03-06 08:52:00,46.0,35.0,-100.00,West,269,8.0,23.0,64,0.00,,,0.22,133.000000,,2013-03-06 13:52:00,
2013-03-06 09:02:00,46.0,35.0,-100.00,West,269,8.0,23.0,64,0.00,,,0.22,133.000000,,2013-03-06 14:02:00,
2013-03-06 09:11:00,46.0,35.0,-100.00,West,269,8.0,23.0,64,0.00,,,0.22,133.000000,,2013-03-06 14:11:00,
2013-03-06 09:22:00,46.0,35.0,-100.00,West,269,8.0,23.0,64,0.00,,,0.22,133.000000,,2013-03-06 14:22:00,
2013-03-06 09:53:00,45.0,32.0,-100.00,West,272,9.0,25.0,60,0.00,,,0.22,82.000000,,2013-03-06 14:53:00,
2013-03-06 10:02:00,45.0,32.0,-100.00,West,272,9.0,25.0,60,0.00,,,0.22,82.000000,,2013-03-06 15:02:00,
2013-03-06 10:12:00,45.0,32.0,-100.00,West,272,9.0,25.0,60,0.00,,,0.22,82.000000,,2013-03-06 15:12:00,
2013-03-06 10:22:00,45.0,32.0,-100.00,West,272,9.0,25.0,60,0.00,,,0.22,82.000000,,2013-03-06 15:22:00,
2013-03-06 10:52:00,47.0,32.0,-100.00,West,270,10.0,30.0,55,0.00,,,0.22,415.000000,,2013-03-06 15:52:00,
2013-03-06 11:02:00,47.0,32.0,-100.00,West,270,10.0,30.0,55,0.00,,,0.22,415.000000,,2013-03-06 16:02:00,
2013-03-06 11:12:00,47.0,32.0,-100.00,West,270,10.0,30.0,55,0.00,,,0.22,415.000000,,2013-03-06 16:12:00,
2013-03-06 11:21:00,47.0,32.0,-100.00,West,270,10.0,30.0,55,0.00,,,0.22,415.000000,,2013-03-06 16:21:00,
2013-03-06 11:52:00,47.0,31.0,-100.00,West,270,10.0,23.0,54,0.00,,,0.22,358.000000,,2013-03-06 16:52:00,
2013-03-06 12:01:00,47.0,31.0,-100.00,West,270,10.0,23.0,54,0.00,,,0.22,358.000000,,2013-03-06 17:01:00,
2013-03-06 12:11:00,47.0,31.0,-100.00,West,270,10.0,23.0,54,0.00,,,0.22,358.000000,,2013-03-06 17:11:00,
2013-03-06 12:22:00,47.0,31.0,-100.00,West,270,10.0,23.0,54,0.00,,,0.22,358.000000,,2013-03-06 17:22:00,
2013-03-06 12:25:00,46.0,30.0,-100.00,West,264,9.0,30.0,53,0.00,,,0.22,311.000000,,2013-03-06 17:25:00,
2013-03-06 12:53:00,46.0,30.0,-100.00,West,264,9.0,30.0,53,0.00,,,0.22,311.000000,,2013-03-06 17:53:00,
2013-03-06 13:02:00,46.0,30.0,-100.00,West,264,9.0,30.0,53,0.00,,,0.22,311.000000,,2013-03-06 18:02:00,
2013-03-06 13:53:00,47.0,29.0,-100.00,West,267,12.0,30.0,50,0.00,,,0.22,291.000000,,2013-03-06 18:53:00,
2013-03-06 14:02:00,47.0,29.0,-100.00,West,267,12.0,30.0,50,0.00,,,0.22,291.000000,,2013-03-06 19:02:00,
2013-03-06 14:11:00,47.0,29.0,-100.00,West,267,12.0,30.0,50,0.00,,,0.22,291.000000,,2013-03-06 19:11:00,
2013-03-06 14:22:00,47.0,29.0,-100.00,West,267,12.0,30.0,50,0.00,,,0.22,291.000000,,2013-03-06 19:22:00,
2013-03-06 14:53:00,47.0,29.0,-100.00,West,270,14.0,33.0,50,0.00,,,0.22,286.000000,,2013-03-06 19:53:00,
2013-03-06 15:02:00,47.0,29.0,-100.00,West,270,14.0,33.0,50,0.00,,,0.22,286.000000,,2013-03-06 20:02:00,
2013-03-06 15:12:00,47.0,29.0,-100.00,West,270,14.0,33.0,50,0.00,,,0.22,286.000000,,2013-03-06 20:12:00,
2013-03-06 15:22:00,47.0,29.0,-100.00,West,270,14.0,33.0,50,0.00,,,0.22,286.000000,,2013-03-06 20:22:00,
2013-03-06 15:53:00,46.0,29.0,-100.00,West,269,12.0,28.0,52,0.00,,,0.22,186.000000,,2013-03-06 20:53:00,
2013-03-06 16:02:00,46.0,29.0,-100.00,West,269,12.0,28.0,52,0.00,,,0.22,186.000000,,2013-03-06 21:02:00,
2013-03-06 16:12:00,46.0,29.0,-100.00,West,269,12.0,28.0,52,0.00,,,0.22,186.000000,,2013-03-06 21:12:00,
2013-03-06 16:22:00,46.0,29.0,-100.00,West,269,12.0,28.0,52,0.00,,,0.22,186.000000,,2013-03-06 21:22:00,
2013-03-06 16:52:00,45.0,31.0,-100.00,West,281,11.0,30.0,57,0.00,,,0.22,113.000000,,2013-03-06 21:52:00,
2013-03-06 17:02:00,45.0,31.0,-100.00,West,281,11.0,30.0,57,0.00,,,0.22,113.000000,,2013-03-06 22:02:00,
2013-03-06 17:12:00,45.0,31.0,-100.00,West,281,11.0,30.0,57,0.00,,,0.22,113.000000,,2013-03-06 22:12:00,
2013-03-06 17:22:00,45.0,31.0,-100.00,West,281,11.0,30.0,57,0.00,,,0.22,113.000000,,2013-03-06 22:22:00,
2013-03-06 17:52:00,42.0,31.0,-100.00,WNW,284,14.0,30.0,65,0.00,,,0.22,55.000000,,2013-03-06 22:52:00,
2013-03-06 18:02:00,42.0,31.0,-100.00,WNW,284,14.0,30.0,65,0.00,,,0.22,55.000000,,2013-03-06 23:02:00,
2013-03-06 18:11:00,42.0,31.0,-100.00,WNW,284,14.0,30.0,65,0.00,,,0.22,55.000000,,2013-03-06 23:11:00,
2013-03-06 18:22:00,42.0,31.0,-100.00,WNW,284,14.0,30.0,65,0.00,,,0.22,55.000000,,2013-03-06 23:22:00,
2013-03-06 18:52:00,41.0,31.0,-100.00,WNW,288,12.0,28.0,67,0.02,,,0.24,7.000000,,2013-03-06 23:52:00,
2013-03-06 19:02:00,41.0,31.0,-100.00,WNW,288,12.0,28.0,67,0.02,,,0.24,7.000000,,2013-03-07 00:02:00,
2013-03-06 19:11:00,41.0,31.0,-100.00,WNW,288,12.0,28.0,67,0.02,,,0.24,7.000000,,2013-03-07 00:11:00,
2013-03-06 19:22:00,41.0,31.0,-100.00,WNW,288,12.0,28.0,67,0.02,,,0.24,7.000000,,2013-03-07 00:22:00,
2013-03-06 19:52:00,40.0,30.0,-100.00,WNW,290,12.0,31.0,67,0.00,,,0.24,0.000000,,2013-03-07 00:52:00,
2013-03-06 20:02:00,40.0,30.0,-100.00,WNW,290,12.0,31.0,67,0.00,,,0.24,0.000000,,2013-03-07 01:02:00,
2013-03-06 20:12:00,40.0,30.0,-100.00,WNW,290,12.0,31.0,67,0.00,,,0.24,0.000000,,2013-03-07 01:12:00,
2013-03-06 20:22:00,40.0,30.0,-100.00,WNW,290,12.0,31.0,67,0.00,,,0.24,0.000000,,2013-03-07 01:22:00,
2013-03-06 20:52:00,42.0,31.0,-100.00,WNW,288,9.0,28.0,64,0.00,,,0.24,0.000000,,2013-03-07 01:52:00,
2013-03-06 21:01:00,42.0,31.0,-100.00,WNW,288,9.0,28.0,64,0.00,,,0.24,0.000000,,2013-03-07 02:01:00,
2013-03-06 21:11:00,42.0,31.0,-100.00,WNW,288,9.0,28.0,64,0.00,,,0.24,0.000000,,2013-03-07 02:11:00,
2013-03-06 21:21:00,42.0,31.0,-100.00,WNW,288,9.0,28.0,64,0.00,,,0.24,0.000000,,2013-03-07 02:21:00,
2013-03-06 22:02:00,42.0,30.0,-100.00,WNW,293,11.0,29.0,63,0.00,,,0.23,0.000000,,2013-03-07 03:02:00,
2013-03-06 22:12:00,42.0,30.0,-100.00,WNW,293,11.0,29.0,63,0.00,,,0.23,0.000000,,2013-03-07 03:12:00,
2013-03-06 22:22:00,42.0,30.0,-100.00,WNW,293,11.0,29.0,63,0.00,,,0.23,0.000000,,2013-03-07 03:22:00,
2013-03-06 22:52:00,42.0,30.0,-100.00,WNW,293,10.0,30.0,63,0.00,,,0.21,0.000000,,2013-03-07 03:52:00,
2013-03-06 23:02:00,42.0,30.0,-100.00,WNW,293,10.0,30.0,63,0.00,,,0.21,0.000000,,2013-03-07 04:02:00,
2013-03-06 23:12:00,42.0,30.0,-100.00,WNW,293,10.0,30.0,63,0.00,,,0.21,0.000000,,2013-03-07 04:12:00,
2013-03-06 23:22:00,42.0,30.0,-100.00,WNW,293,10.0,30.0,63,0.00,,,0.21,0.000000,,2013-03-07 04:22:00,
2013-03-06 23:52:00,43.0,31.0,-100.00,WNW,291,11.0,24.0,62,0.00,,,0.21,0.000000,,2013-03-07 04:52:00,